This is the latest recevied weather packets stored in our database for station/object W0SS-13. If no packets are shown the sender has not sent any weather packets the latest 10 day(s).
| Time | Temp. | Humidity | Pressure | Rain* | Wind** | Luminosity | Snow |
|---|---|---|---|---|---|---|---|
| 1778108063 | 15.56° C | 38% | 1018.1 hPa | 0 mm | - | 283 W/m² | - |
| 1778107760 | 15° C | 38% | 1017.9 hPa | 0 mm | - | 299 W/m² | - |
| 1778107458 | 15.56° C | 37% | 1017.9 hPa | 0 mm | - | 315 W/m² | - |
| 1778107154 | 15.56° C | 42% | 1018.1 hPa | 0 mm | - | 330 W/m² | - |
| 1778106849 | 15° C | 38% | 1018.2 hPa | 0 mm | - | 344 W/m² | - |
| 1778106546 | 15° C | 39% | 1018 hPa | 0 mm | - | 362 W/m² | - |
| 1778106243 | 15.56° C | 37% | 1018.2 hPa | 0 mm | - | 379 W/m² | - |
| 1778105940 | 15.56° C | 41% | 1018.1 hPa | 0 mm | - | 395 W/m² | - |
| 1778105637 | 15.56° C | 36% | 1018.3 hPa | 0 mm | - | 412 W/m² | - |
| 1778105335 | 15.56° C | 39% | 1018.2 hPa | 0 mm | - | 426 W/m² | - |
| 1778105030 | 15.56° C | 44% | 1018.3 hPa | 0 mm | - | 440 W/m² | - |
| 1778104727 | 15° C | 40% | 1018.3 hPa | 0 mm | - | 457 W/m² | - |
| 1778104423 | 15° C | 36% | 1018.6 hPa | 0 mm | - | 473 W/m² | - |
| 1778104119 | 15° C | 39% | 1018.2 hPa | 0 mm | - | 487 W/m² | - |
| 1778103816 | 15° C | 40% | 1018.5 hPa | 0 mm | - | 498 W/m² | - |
| 1778103514 | 15° C | 39% | 1018.6 hPa | 0 mm | - | 513 W/m² | - |
| 1778103211 | 15.56° C | 39% | 1018.6 hPa | 0 mm | - | 526 W/m² | - |
| 1778102908 | 15° C | 40% | 1018.6 hPa | 0 mm | - | 541 W/m² | - |
| 1778102604 | 15° C | 36% | 1018.7 hPa | 0 mm | - | 553 W/m² | - |
| 1778102299 | 15° C | 36% | 1018.9 hPa | 0 mm | - | 568 W/m² | - |
| 1778101995 | 15° C | 39% | 1018.9 hPa | 0 mm | - | 580 W/m² | - |
| 1778101693 | 15° C | 39% | 1018.8 hPa | 0 mm | - | 594 W/m² | - |
| 1778101389 | 15° C | 40% | 1018.7 hPa | 0 mm | - | 608 W/m² | - |
| 1778101087 | 14.44° C | 40% | 1019 hPa | 0 mm | - | 615 W/m² | - |
| 1778100782 | 15° C | 39% | 1019.1 hPa | 0 mm | - | 629 W/m² | - |
* Rain latest hour (hover to see other rain measurements)
** Current wind speed in m/s (hover to see current wind gust speed)